Weather History for Elizabethtown, NC

Change the Weather History Date:

Wednesday, January 30, 2013

  Actual Average (KILM) Record (KILM)
Temperature  
Mean Temperature 67 °F 47 °F  
Max Temperature 73 °F 58 °F 79 °F (2002)
Min Temperature 61 °F 36 °F 11 °F (1934)
Degree Days  
Heating Degree Days 0 18  
Month to date heating degree days 567  
Since 1 July heating degree days 1451  
Cooling Degree Days 2 0  
Month to date cooling degree days 0  
Year to date cooling degree days 0  
Growing Degree Days 17 (Base 50)    
Moisture  
Dew Point 62 °F    
Average Humidity 84    
Maximum Humidity 100    
Minimum Humidity 67    
Precipitation  
Precipitation 0.00 in 0.13 in 1.54 in (1994)
Month to date precipitation 3.63  
Year to date precipitation 3.63  
Snow  
Snow 0.00 in 0.00 in 6.50 in (1936)
Month to date snowfall 0.4  
Since 1 July snowfall 1.2  
Snow Depth -    
Sea Level Pressure  
Sea Level Pressure 29.90 in    
Wind  
Wind Speed 10 mph (South)    
Max Wind Speed 25 mph    
Max Gust Speed 40 mph    
Visibility 9 miles    
Events Rain    
T = Trace of Precipitation, MM = Missing Value Source: NWS Daily Summary

Daily Weather History Graph

Daily Weather History Graph

Search for Another Location

Airport:

Trip Planner

Search our weather history database for the weather conditions in past years. The results will help you decide how hot, cold, wet, or windy it might be!

Date:

Astronomy

Jan. 30, 2013 Rise Set
Actual Time 7:13 AM EST 5:42 PM EST
Civil Twilight 6:47 AM EST 6:08 PM EST
Nautical Twilight 6:16 AM EST 6:38 PM EST
Astronomical Twilight 5:47 AM EST 7:08 PM EST
Moon 9:26 PM EST (1/30) 8:51 AM EST (1/30)
Length of Visible Light 11h 21m
Length of Day
10h 28m
Waning Gibbous, 88% of the Moon is Illuminated
Jan 30
Waning Gibbous
Feb 3
Last Quarter
Feb 10
New
Feb 17
First Quarter
Feb 25
Full

Hourly Weather History & Observations

Time (EST) Temp. Dew Point Humidity Pressure Visibility Wind Dir Wind Speed Gust Speed Precip Events Conditions
12:15 AM 61.9 °F 61.0 °F 97% 30.11 in 7.0 mi South 6.9 mph - N/A   Clear
12:35 AM 61.7 °F 61.0 °F 97% 30.10 in 7.0 mi SSE 5.8 mph - N/A   Clear
12:55 AM 61.0 °F 60.4 °F 98% 30.11 in 7.0 mi South 5.8 mph - N/A   Clear
1:15 AM 61.0 °F 60.8 °F 99% 30.10 in 5.0 mi South 4.6 mph - N/A   Clear
1:35 AM 61.7 °F 61.5 °F 99% 30.10 in 5.0 mi South 6.9 mph - N/A   Scattered Clouds
1:55 AM 61.7 °F 61.7 °F 100% 30.09 in 5.0 mi South 6.9 mph - N/A   Scattered Clouds
2:15 AM 61.3 °F 61.3 °F 100% 30.08 in 5.0 mi South 5.8 mph - N/A   Scattered Clouds
2:55 AM 61.3 °F 61.3 °F 100% 30.07 in 7.0 mi South 5.8 mph - N/A   Scattered Clouds
3:15 AM 61.5 °F 61.5 °F 100% 30.07 in 7.0 mi South 5.8 mph - N/A   Clear
3:35 AM 61.7 °F 61.7 °F 100% 30.07 in 7.0 mi South 5.8 mph - N/A   Scattered Clouds
3:55 AM 61.9 °F 61.7 °F 99% 30.06 in 10.0 mi South 5.8 mph - N/A   Scattered Clouds
4:15 AM 61.9 °F 61.7 °F 99% 30.05 in 10.0 mi South 5.8 mph - N/A   Clear
4:55 AM 61.3 °F 61.0 °F 99% 30.04 in 7.0 mi South 6.9 mph - N/A   Clear
5:15 AM 61.3 °F 61.0 °F 99% 30.04 in 7.0 mi South 6.9 mph - N/A   Clear
5:35 AM 61.7 °F 61.2 °F 98% 30.03 in 7.0 mi SSE 6.9 mph - N/A   Clear
5:55 AM 61.3 °F 61.0 °F 99% 30.03 in 7.0 mi SSE 8.1 mph - N/A   Clear
6:15 AM 61.7 °F 61.3 °F 99% 30.02 in 10.0 mi South 6.9 mph - N/A   Clear
6:35 AM 62.8 °F 62.2 °F 98% 30.03 in 10.0 mi South 6.9 mph - N/A   Clear
6:55 AM 62.8 °F 61.7 °F 96% 30.03 in 10.0 mi South 6.9 mph - N/A   Clear
7:15 AM 62.8 °F 61.7 °F 96% 30.01 in 10.0 mi South 6.9 mph - N/A   Clear
7:35 AM 62.8 °F 61.9 °F 97% 30.01 in 7.0 mi South 9.2 mph - N/A   Clear
7:55 AM 63.1 °F 62.2 °F 97% 30.01 in 7.0 mi South 6.9 mph - N/A   Clear
8:15 AM 63.7 °F 62.4 °F 96% 30.01 in 7.0 mi South 6.9 mph - N/A   Clear
8:35 AM 64.4 °F 62.6 °F 94% 30.01 in 7.0 mi South 8.1 mph - N/A   Clear
8:55 AM 66.2 °F 63.5 °F 91% 30.00 in 10.0 mi South 9.2 mph - N/A   Clear
9:15 AM 67.1 °F 63.5 °F 88% 29.99 in 10.0 mi South 11.5 mph 16.1 mph N/A   Scattered Clouds
9:35 AM 68.4 °F 63.5 °F 84% 29.99 in 10.0 mi South 11.5 mph 16.1 mph N/A   Scattered Clouds
9:55 AM 69.8 °F 63.7 °F 81% 29.99 in 10.0 mi South 13.8 mph 20.7 mph N/A   Scattered Clouds
10:15 AM 69.8 °F 63.1 °F 79% 29.98 in 10.0 mi South 12.7 mph 20.7 mph N/A   Overcast
10:35 AM 70.7 °F 63.5 °F 78% 29.98 in 10.0 mi South 10.4 mph 20.7 mph N/A   Overcast
10:55 AM 71.6 °F 63.0 °F 74% 29.97 in 10.0 mi South 13.8 mph 24.2 mph N/A   Overcast
11:15 AM 72.1 °F 62.6 °F 72% 29.95 in 10.0 mi South 13.8 mph 21.9 mph N/A   Overcast
11:35 AM 71.6 °F 62.6 °F 73% 29.95 in 10.0 mi South 13.8 mph 24.2 mph N/A   Overcast
11:55 AM 71.8 °F 62.4 °F 72% 29.93 in 10.0 mi South 13.8 mph 27.6 mph N/A   Overcast
12:15 PM 71.8 °F 62.4 °F 72% 29.92 in 10.0 mi South 15.0 mph 21.9 mph N/A   Overcast
12:35 PM 71.6 °F 62.4 °F 73% 29.91 in 10.0 mi South 17.3 mph 25.3 mph N/A   Overcast
12:55 PM 71.2 °F 62.2 °F 73% 29.90 in 10.0 mi South 15.0 mph 26.5 mph N/A Rain Light Rain
1:15 PM 71.1 °F 62.6 °F 75% 29.88 in 10.0 mi South 18.4 mph 29.9 mph N/A   Overcast
1:35 PM 72.5 °F 62.4 °F 71% 29.87 in 10.0 mi South 19.6 mph 26.5 mph N/A   Overcast
2:15 PM 71.6 °F 63.5 °F 76% 29.84 in 10.0 mi South 17.3 mph 27.6 mph N/A   Overcast
2:35 PM 73.4 °F 62.2 °F 68% 29.83 in 10.0 mi South 19.6 mph 27.6 mph N/A   Mostly Cloudy
2:55 PM 73.4 °F 61.7 °F 67% 29.82 in 10.0 mi South 16.1 mph 25.3 mph N/A   Overcast
3:15 PM 72.5 °F 61.9 °F 69% 29.81 in 10.0 mi South 21.9 mph 29.9 mph N/A   Overcast
3:55 PM 72.5 °F 62.1 °F 70% 29.80 in 10.0 mi South 12.7 mph 25.3 mph N/A   Overcast
4:15 PM 71.6 °F 62.6 °F 73% 29.79 in 10.0 mi South 12.7 mph 27.6 mph N/A   Overcast
4:35 PM 71.6 °F 62.6 °F 73% 29.78 in 10.0 mi South 18.4 mph 26.5 mph N/A   Overcast
5:15 PM 70.7 °F 62.8 °F 76% 29.75 in 10.0 mi South 16.1 mph 32.2 mph N/A   Overcast
5:35 PM 69.8 °F 63.5 °F 80% 29.74 in 10.0 mi South 17.3 mph 25.3 mph N/A   Overcast
5:55 PM 69.8 °F 63.5 °F 80% 29.75 in 10.0 mi South 19.6 mph 29.9 mph N/A   Overcast
6:15 PM 69.8 °F 63.3 °F 80% 29.74 in 10.0 mi South 13.8 mph 28.8 mph N/A   Overcast
6:35 PM 69.8 °F 62.8 °F 78% 29.73 in 10.0 mi South 18.4 mph 27.6 mph N/A   Overcast
6:55 PM 69.8 °F 62.6 °F 78% 29.72 in 10.0 mi South 16.1 mph 23.0 mph N/A   Overcast
7:15 PM 70.0 °F 62.4 °F 77% 29.72 in 10.0 mi South 16.1 mph 25.3 mph N/A   Overcast
7:55 PM 70.0 °F 62.6 °F 77% 29.69 in 10.0 mi South 23.0 mph 31.1 mph N/A   Mostly Cloudy
8:15 PM 70.7 °F 62.6 °F 75% 29.68 in 10.0 mi South 23.0 mph 29.9 mph N/A   Overcast
8:35 PM 70.7 °F 62.6 °F 75% 29.67 in 10.0 mi South 20.7 mph 33.4 mph N/A   Overcast
8:55 PM 70.7 °F 62.8 °F 76% 29.66 in 10.0 mi South 20.7 mph 34.5 mph N/A   Overcast
9:15 PM 70.9 °F 63.0 °F 76% 29.65 in 10.0 mi South 20.7 mph 32.2 mph N/A   Unknown
9:35 PM 70.9 °F 63.5 °F 77% 29.64 in 10.0 mi South 20.7 mph 32.2 mph N/A   Unknown
9:55 PM 71.1 °F 63.5 °F 77% 29.62 in 10.0 mi South 23.0 mph 31.1 mph N/A   Unknown
10:55 PM 71.6 °F 63.7 °F 76% 29.58 in 10.0 mi South 25.3 mph 40.3 mph N/A   Unknown
11:15 PM 71.6 °F 63.7 °F 76% 29.57 in 10.0 mi South 25.3 mph 34.5 mph N/A   Unknown
11:35 PM 70.9 °F 64.4 °F 80% 29.56 in 7.0 mi South 21.9 mph 34.5 mph N/A Rain Light Rain